Year,Month,Day,Hour,Minute,Value (Times are PST for temperature in C)
2017,09,05,00,00,22.40
2017,09,05,00,01,22.40
2017,09,05,00,02,22.40
2017,09,05,00,03,22.40
2017,09,05,00,04,22.40
2017,09,05,00,05,22.40
2017,09,05,00,06,22.40
2017,09,05,00,07,22.40
2017,09,05,00,08,22.40
2017,09,05,00,09,22.30
2017,09,05,00,10,22.30
2017,09,05,00,11,22.30
2017,09,05,00,12,22.20
2017,09,05,00,13,22.10
2017,09,05,00,14,22.10
2017,09,05,00,15,22.10
2017,09,05,00,16,22.00
2017,09,05,00,17,22.00
2017,09,05,00,18,22.00
2017,09,05,00,19,22.10
2017,09,05,00,20,22.10
2017,09,05,00,21,22.10
2017,09,05,00,22,22.10
2017,09,05,00,23,22.10
2017,09,05,00,24,22.10
2017,09,05,00,25,22.10
2017,09,05,00,26,22.10
2017,09,05,00,27,22.20
2017,09,05,00,28,22.20
2017,09,05,00,29,22.20
2017,09,05,00,30,22.20
2017,09,05,00,31,22.20
2017,09,05,00,32,22.20
2017,09,05,00,33,22.20
2017,09,05,00,34,22.10
2017,09,05,00,35,22.10
2017,09,05,00,36,22.10
2017,09,05,00,37,22.10
2017,09,05,00,38,22.10
2017,09,05,00,39,22.10
2017,09,05,00,40,22.10
2017,09,05,00,41,22.10
2017,09,05,00,42,22.20
2017,09,05,00,43,22.20
2017,09,05,00,44,22.10
2017,09,05,00,45,22.10
2017,09,05,00,46,22.10
2017,09,05,00,47,22.10
2017,09,05,00,48,22.10
2017,09,05,00,49,22.10
2017,09,05,00,50,22.10
2017,09,05,00,51,22.10
2017,09,05,00,52,22.10
2017,09,05,00,53,22.10
2017,09,05,00,54,22.20
2017,09,05,00,55,22.20
2017,09,05,00,56,22.20
2017,09,05,00,57,22.20
2017,09,05,00,58,22.20
2017,09,05,00,59,22.20
2017,09,05,01,00,22.20
2017,09,05,01,01,22.20
2017,09,05,01,02,22.20
2017,09,05,01,03,22.20
2017,09,05,01,04,22.20
2017,09,05,01,05,22.20
2017,09,05,01,06,22.20
2017,09,05,01,07,22.10
2017,09,05,01,08,22.20
2017,09,05,01,09,22.20
2017,09,05,01,10,22.20
2017,09,05,01,11,22.10
2017,09,05,01,12,22.10
2017,09,05,01,13,22.10
2017,09,05,01,14,22.00
2017,09,05,01,15,21.90
2017,09,05,01,16,21.90
2017,09,05,01,17,21.90
2017,09,05,01,18,21.90
2017,09,05,01,19,21.90
2017,09,05,01,20,21.80
2017,09,05,01,21,21.80
2017,09,05,01,22,21.80
2017,09,05,01,23,21.80
2017,09,05,01,24,21.80
2017,09,05,01,25,21.80
2017,09,05,01,26,21.70
2017,09,05,01,27,21.70
2017,09,05,01,28,21.80
2017,09,05,01,29,21.80
2017,09,05,01,30,21.80
2017,09,05,01,31,21.80
2017,09,05,01,32,21.80
2017,09,05,01,33,21.80
2017,09,05,01,34,21.90
2017,09,05,01,35,22.00
2017,09,05,01,36,22.00
2017,09,05,01,37,22.00
2017,09,05,01,38,22.10
2017,09,05,01,39,22.10
2017,09,05,01,40,22.10
2017,09,05,01,41,22.10
2017,09,05,01,42,22.10
2017,09,05,01,43,22.00
2017,09,05,01,44,22.00
2017,09,05,01,45,21.90
2017,09,05,01,46,21.80
2017,09,05,01,47,21.70
2017,09,05,01,48,21.70
2017,09,05,01,49,21.60
2017,09,05,01,50,21.60
2017,09,05,01,51,21.50
2017,09,05,01,52,21.40
2017,09,05,01,53,21.40
2017,09,05,01,54,21.30
2017,09,05,01,55,21.30
2017,09,05,01,56,21.30
2017,09,05,01,57,21.20
2017,09,05,01,58,21.20
2017,09,05,01,59,21.10
2017,09,05,02,00,21.10
2017,09,05,02,01,21.00
2017,09,05,02,02,21.00
2017,09,05,02,03,21.00
2017,09,05,02,04,20.90
2017,09,05,02,05,20.90
2017,09,05,02,06,20.90
2017,09,05,02,07,20.90
2017,09,05,02,08,20.90
2017,09,05,02,09,20.90
2017,09,05,02,10,20.90
2017,09,05,02,11,21.00
2017,09,05,02,12,21.00
2017,09,05,02,13,21.10
2017,09,05,02,14,21.20
2017,09,05,02,15,21.30
2017,09,05,02,16,21.40
2017,09,05,02,17,21.50
2017,09,05,02,18,21.60
2017,09,05,02,19,21.60
2017,09,05,02,20,21.70
2017,09,05,02,21,21.70
2017,09,05,02,22,21.70
2017,09,05,02,23,21.80
2017,09,05,02,24,21.80
2017,09,05,02,25,21.80
2017,09,05,02,26,21.90
2017,09,05,02,27,21.90
2017,09,05,02,28,22.00
2017,09,05,02,29,22.00
2017,09,05,02,30,22.00
2017,09,05,02,31,22.00
2017,09,05,02,32,22.00
2017,09,05,02,33,22.10
2017,09,05,02,34,22.00
2017,09,05,02,35,21.90
2017,09,05,02,36,21.80
2017,09,05,02,37,21.70
2017,09,05,02,38,21.50
2017,09,05,02,39,21.40
2017,09,05,02,40,21.30
2017,09,05,02,41,21.20
2017,09,05,02,42,21.10
2017,09,05,02,43,21.00
2017,09,05,02,44,20.90
2017,09,05,02,45,20.80
2017,09,05,02,46,20.80
2017,09,05,02,47,20.70
2017,09,05,02,48,20.70
2017,09,05,02,49,20.60
2017,09,05,02,50,20.60
2017,09,05,02,51,20.50
2017,09,05,02,52,20.50
2017,09,05,02,53,20.40
2017,09,05,02,54,20.40
2017,09,05,02,55,20.40
2017,09,05,02,56,20.30
2017,09,05,02,57,20.30
2017,09,05,02,58,20.20
2017,09,05,02,59,20.20
2017,09,05,03,00,20.20
2017,09,05,03,01,20.10
2017,09,05,03,02,20.10
2017,09,05,03,03,20.10
2017,09,05,03,04,20.10
2017,09,05,03,05,20.10
2017,09,05,03,06,20.10
2017,09,05,03,07,20.10
2017,09,05,03,08,20.00
2017,09,05,03,09,20.00
2017,09,05,03,10,20.00
2017,09,05,03,11,20.00
2017,09,05,03,12,20.00
2017,09,05,03,13,19.90
2017,09,05,03,14,19.90
2017,09,05,03,15,19.90
2017,09,05,03,16,19.90
2017,09,05,03,17,19.90
2017,09,05,03,18,19.90
2017,09,05,03,19,19.90
2017,09,05,03,20,19.90
2017,09,05,03,21,19.90
2017,09,05,03,22,19.90
2017,09,05,03,23,19.90
2017,09,05,03,24,19.90
2017,09,05,03,25,19.90
2017,09,05,03,26,19.90
2017,09,05,03,27,19.90
2017,09,05,03,28,19.90
2017,09,05,03,29,20.00
2017,09,05,03,30,20.00
2017,09,05,03,31,20.00
2017,09,05,03,32,20.00
2017,09,05,03,33,20.10
2017,09,05,03,34,20.10
2017,09,05,03,35,20.10
2017,09,05,03,36,20.10
2017,09,05,03,37,20.20
2017,09,05,03,38,20.20
2017,09,05,03,39,20.20
2017,09,05,03,40,20.20
2017,09,05,03,41,20.20
2017,09,05,03,42,20.20
2017,09,05,03,43,20.20
2017,09,05,03,44,20.20
2017,09,05,03,45,20.20
2017,09,05,03,46,20.20
2017,09,05,03,47,20.10
2017,09,05,03,48,20.10
2017,09,05,03,49,20.00
2017,09,05,03,50,20.00
2017,09,05,03,51,20.00
2017,09,05,03,52,19.90
2017,09,05,03,53,19.90
2017,09,05,03,54,19.80
2017,09,05,03,55,19.80
2017,09,05,03,56,19.80
2017,09,05,03,57,19.70
2017,09,05,03,58,19.70
2017,09,05,03,59,19.70
2017,09,05,04,00,19.70
2017,09,05,04,01,19.70
2017,09,05,04,02,19.60
2017,09,05,04,03,19.60
2017,09,05,04,04,19.60
2017,09,05,04,05,19.60
2017,09,05,04,06,19.60
2017,09,05,04,07,19.60
2017,09,05,04,08,19.50
2017,09,05,04,09,19.50
2017,09,05,04,10,19.50
2017,09,05,04,11,19.50
2017,09,05,04,12,19.50
2017,09,05,04,13,19.50
2017,09,05,04,14,19.50
2017,09,05,04,15,19.50
2017,09,05,04,16,19.50
2017,09,05,04,17,19.50
2017,09,05,04,18,19.40
2017,09,05,04,19,19.40
2017,09,05,04,20,19.40
2017,09,05,04,21,19.40
2017,09,05,04,22,19.40
2017,09,05,04,23,19.40
2017,09,05,04,24,19.40
2017,09,05,04,25,19.40
2017,09,05,04,26,19.40
2017,09,05,04,27,19.40
2017,09,05,04,28,19.40
2017,09,05,04,29,19.40
2017,09,05,04,30,19.40
2017,09,05,04,31,19.40
2017,09,05,04,32,19.40
2017,09,05,04,33,19.40
2017,09,05,04,34,19.40
2017,09,05,04,35,19.40
2017,09,05,04,36,19.40
2017,09,05,04,37,19.40
2017,09,05,04,38,19.40
2017,09,05,04,39,19.40
2017,09,05,04,40,19.40
2017,09,05,04,41,19.40
2017,09,05,04,42,19.40
2017,09,05,04,43,19.40
2017,09,05,04,44,19.40
2017,09,05,04,45,19.40
2017,09,05,04,46,19.40
2017,09,05,04,47,19.40
2017,09,05,04,48,19.40
2017,09,05,04,49,19.40
2017,09,05,04,50,19.40
2017,09,05,04,51,19.30
2017,09,05,04,52,19.30
2017,09,05,04,53,19.30
2017,09,05,04,54,19.30
2017,09,05,04,55,19.30
2017,09,05,04,56,19.30
2017,09,05,04,57,19.30
2017,09,05,04,58,19.30
2017,09,05,04,59,19.30
2017,09,05,05,00,19.30
2017,09,05,05,01,19.30
2017,09,05,05,02,19.30
2017,09,05,05,03,19.30
2017,09,05,05,04,19.30
2017,09,05,05,05,19.30
2017,09,05,05,06,19.30
2017,09,05,05,07,19.30
2017,09,05,05,08,19.30
2017,09,05,05,09,19.30
2017,09,05,05,10,19.30
2017,09,05,05,11,19.30
2017,09,05,05,12,19.30
2017,09,05,05,13,19.30
2017,09,05,05,14,19.30
2017,09,05,05,15,19.30
2017,09,05,05,16,19.30
2017,09,05,05,17,19.30
2017,09,05,05,18,19.20
2017,09,05,05,19,19.20
2017,09,05,05,20,19.20
2017,09,05,05,21,19.20
2017,09,05,05,22,19.20
2017,09,05,05,23,19.20
2017,09,05,05,24,19.20
2017,09,05,05,25,19.10
2017,09,05,05,26,19.10
2017,09,05,05,27,19.10
2017,09,05,05,28,19.10
2017,09,05,05,29,19.10
2017,09,05,05,30,19.10
2017,09,05,05,31,19.00
2017,09,05,05,32,19.00
2017,09,05,05,33,19.00
2017,09,05,05,34,19.00
2017,09,05,05,35,19.00
2017,09,05,05,36,19.00
2017,09,05,05,37,19.00
2017,09,05,05,38,19.00
2017,09,05,05,39,19.00
2017,09,05,05,40,19.00
2017,09,05,05,41,19.00
2017,09,05,05,42,19.00
2017,09,05,05,43,18.90
2017,09,05,05,44,18.90
2017,09,05,05,45,18.90
2017,09,05,05,46,18.90
2017,09,05,05,47,18.90
2017,09,05,05,48,18.90
2017,09,05,05,49,18.90
2017,09,05,05,50,18.90
2017,09,05,05,51,18.90
2017,09,05,05,52,18.90
2017,09,05,05,53,18.90
2017,09,05,05,54,18.90
2017,09,05,05,55,18.90
2017,09,05,05,56,18.90
2017,09,05,05,57,18.90
2017,09,05,05,58,18.80
2017,09,05,05,59,18.80
2017,09,05,06,00,18.80
2017,09,05,06,01,18.80
2017,09,05,06,02,18.80
2017,09,05,06,03,18.80
2017,09,05,06,04,18.80
2017,09,05,06,05,18.80
2017,09,05,06,06,18.80
2017,09,05,06,07,18.80
2017,09,05,06,08,18.80
2017,09,05,06,09,18.80
2017,09,05,06,10,18.80
2017,09,05,06,11,18.70
2017,09,05,06,12,18.70
2017,09,05,06,13,18.70
2017,09,05,06,14,18.70
2017,09,05,06,15,18.70
2017,09,05,06,16,18.70
2017,09,05,06,17,18.70
2017,09,05,06,18,18.70
2017,09,05,06,19,18.70
2017,09,05,06,20,18.70
2017,09,05,06,21,18.70
2017,09,05,06,22,18.70
2017,09,05,06,23,18.70
2017,09,05,06,24,18.70
2017,09,05,06,25,18.80
2017,09,05,06,26,18.70
2017,09,05,06,27,18.70
2017,09,05,06,28,18.70
2017,09,05,06,29,18.70
2017,09,05,06,30,18.60
2017,09,05,06,31,18.60
2017,09,05,06,32,18.60
2017,09,05,06,33,18.60
2017,09,05,06,34,18.50
2017,09,05,06,35,18.50
2017,09,05,06,36,18.40
2017,09,05,06,37,18.40
2017,09,05,06,38,18.40
2017,09,05,06,39,18.30
2017,09,05,06,40,18.30
2017,09,05,06,41,18.30
2017,09,05,06,42,18.30
2017,09,05,06,43,18.30
2017,09,05,06,44,18.30
2017,09,05,06,45,18.30
2017,09,05,06,46,18.30
2017,09,05,06,47,18.30
2017,09,05,06,48,18.30
2017,09,05,06,49,18.30
2017,09,05,06,50,18.30
2017,09,05,06,51,18.30
2017,09,05,06,52,18.30
2017,09,05,06,53,18.30
2017,09,05,06,54,18.20
2017,09,05,06,55,18.20
2017,09,05,06,56,18.20
2017,09,05,06,57,18.20
2017,09,05,06,58,18.20
2017,09,05,06,59,18.20
2017,09,05,07,00,18.20
2017,09,05,07,01,18.20
2017,09,05,07,02,18.20
2017,09,05,07,03,18.20
2017,09,05,07,04,18.20
2017,09,05,07,05,18.20
2017,09,05,07,06,18.20
2017,09,05,07,07,18.20
2017,09,05,07,08,18.20
2017,09,05,07,09,18.10
2017,09,05,07,10,18.10
2017,09,05,07,11,18.10
2017,09,05,07,12,18.10
2017,09,05,07,13,18.10
2017,09,05,07,14,18.10
2017,09,05,07,15,18.10
2017,09,05,07,16,18.10
2017,09,05,07,17,18.10
2017,09,05,07,18,18.10
2017,09,05,07,19,18.10
2017,09,05,07,20,18.10
2017,09,05,07,21,18.10
2017,09,05,07,22,18.10
2017,09,05,07,23,18.10
2017,09,05,07,24,18.20
2017,09,05,07,25,18.20
2017,09,05,07,26,18.20
2017,09,05,07,27,18.20
2017,09,05,07,28,18.20
2017,09,05,07,29,18.20
2017,09,05,07,30,18.20
2017,09,05,07,31,18.20
2017,09,05,07,32,18.20
2017,09,05,07,33,18.20
2017,09,05,07,34,18.20
2017,09,05,07,35,18.20
2017,09,05,07,36,18.20
2017,09,05,07,37,18.20
2017,09,05,07,38,18.20
2017,09,05,07,39,18.30
2017,09,05,07,40,18.30
2017,09,05,07,41,18.30
2017,09,05,07,42,18.30
2017,09,05,07,43,18.30
2017,09,05,07,44,18.30
2017,09,05,07,45,18.30
2017,09,05,07,46,18.30
2017,09,05,07,47,18.30
2017,09,05,07,48,18.30
2017,09,05,07,49,18.30
2017,09,05,07,50,18.30
2017,09,05,07,51,18.30
2017,09,05,07,52,18.30
2017,09,05,07,53,18.30
2017,09,05,07,54,18.30
2017,09,05,07,55,18.30
2017,09,05,07,56,18.30
2017,09,05,07,57,18.30
2017,09,05,07,58,18.30
2017,09,05,07,59,18.40
2017,09,05,08,00,18.40
2017,09,05,08,01,18.40
2017,09,05,08,02,18.40
2017,09,05,08,03,18.40
2017,09,05,08,04,18.40
2017,09,05,08,05,18.40
2017,09,05,08,06,18.40
2017,09,05,08,07,18.40
2017,09,05,08,08,18.40
2017,09,05,08,09,18.50
2017,09,05,08,10,18.50
2017,09,05,08,11,18.50
2017,09,05,08,12,18.50
2017,09,05,08,13,18.60
2017,09,05,08,14,18.60
2017,09,05,08,15,18.60
2017,09,05,08,16,18.60
2017,09,05,08,17,18.60
2017,09,05,08,18,18.70
2017,09,05,08,19,18.70
2017,09,05,08,20,18.70
2017,09,05,08,21,18.70
2017,09,05,08,22,18.70
2017,09,05,08,23,18.80
2017,09,05,08,24,18.80
2017,09,05,08,25,18.80
2017,09,05,08,26,18.90
2017,09,05,08,27,18.90
2017,09,05,08,28,18.90
2017,09,05,08,29,18.90
2017,09,05,08,30,18.90
2017,09,05,08,31,19.00
2017,09,05,08,32,19.00
2017,09,05,08,33,19.10
2017,09,05,08,34,19.10
2017,09,05,08,35,19.10
2017,09,05,08,36,19.20
2017,09,05,08,37,19.20
2017,09,05,08,38,19.20
2017,09,05,08,39,19.20
2017,09,05,08,40,19.20
2017,09,05,08,41,19.20
2017,09,05,08,42,19.20
2017,09,05,08,43,19.20
2017,09,05,08,44,19.20
2017,09,05,08,45,19.20
2017,09,05,08,46,19.30
2017,09,05,08,47,19.30
2017,09,05,08,48,19.30
2017,09,05,08,49,19.30
2017,09,05,08,50,19.30
2017,09,05,08,51,19.30
2017,09,05,08,52,19.40
2017,09,05,08,53,19.50
2017,09,05,08,54,19.50
2017,09,05,08,55,19.50
2017,09,05,08,56,19.60
2017,09,05,08,57,19.60
2017,09,05,08,58,19.70
2017,09,05,08,59,19.70
2017,09,05,09,00,19.70
2017,09,05,09,01,19.80
2017,09,05,09,02,19.80
2017,09,05,09,03,19.80
2017,09,05,09,04,19.90
2017,09,05,09,05,20.00
2017,09,05,09,06,20.00
2017,09,05,09,07,20.10
2017,09,05,09,08,20.20
2017,09,05,09,09,20.20
2017,09,05,09,10,20.30
2017,09,05,09,11,20.30
2017,09,05,09,12,20.40
2017,09,05,09,13,20.40
2017,09,05,09,14,20.50
2017,09,05,09,15,20.60
2017,09,05,09,16,20.60
2017,09,05,09,17,20.70
2017,09,05,09,18,20.70
2017,09,05,09,19,20.80
2017,09,05,09,20,20.80
2017,09,05,09,21,20.80
2017,09,05,09,22,20.90
2017,09,05,09,23,21.00
2017,09,05,09,24,21.10
2017,09,05,09,25,21.10
2017,09,05,09,26,21.20
2017,09,05,09,27,21.30
2017,09,05,09,28,21.40
2017,09,05,09,29,21.50
2017,09,05,09,30,21.50
2017,09,05,09,31,21.60
2017,09,05,09,32,21.70
2017,09,05,09,33,21.80
2017,09,05,09,34,21.80
2017,09,05,09,35,21.90
2017,09,05,09,36,22.00
2017,09,05,09,37,22.10
2017,09,05,09,38,22.20
2017,09,05,09,39,22.30
2017,09,05,09,40,22.40
2017,09,05,09,41,22.40
2017,09,05,09,42,22.50
2017,09,05,09,43,22.60
2017,09,05,09,44,22.60
2017,09,05,09,45,22.70
2017,09,05,09,46,22.70
2017,09,05,09,47,22.70
2017,09,05,09,48,22.80
2017,09,05,09,49,22.80
2017,09,05,09,50,22.70
2017,09,05,09,51,22.70
2017,09,05,09,52,22.70
2017,09,05,09,53,22.70
2017,09,05,09,54,22.60
2017,09,05,09,55,22.60
2017,09,05,09,56,22.60
2017,09,05,09,57,22.60
2017,09,05,09,58,22.60
2017,09,05,09,59,22.50
2017,09,05,10,00,22.50
2017,09,05,10,01,22.60
2017,09,05,10,02,22.60
2017,09,05,10,03,22.60
2017,09,05,10,04,22.70
2017,09,05,10,05,22.70
2017,09,05,10,06,22.70
2017,09,05,10,07,22.70
2017,09,05,10,08,22.70
2017,09,05,10,09,22.70
2017,09,05,10,10,22.70
2017,09,05,10,11,22.70
2017,09,05,10,12,22.80
2017,09,05,10,13,23.40
2017,09,05,10,14,23.50
2017,09,05,10,15,23.50
2017,09,05,10,16,23.70
2017,09,05,10,17,23.70
2017,09,05,10,18,23.90
2017,09,05,10,19,23.90
2017,09,05,10,20,24.10
2017,09,05,10,21,24.10
2017,09,05,10,22,24.20
2017,09,05,10,23,24.20
2017,09,05,10,24,24.20
2017,09,05,10,25,24.20
2017,09,05,10,26,24.20
2017,09,05,10,27,24.20
2017,09,05,10,28,24.20
2017,09,05,10,29,24.10
2017,09,05,10,30,24.10
2017,09,05,10,31,24.10
2017,09,05,10,32,24.00
2017,09,05,10,33,24.00
2017,09,05,10,34,24.00
2017,09,05,10,35,24.00
2017,09,05,10,36,24.00
2017,09,05,10,37,24.00
2017,09,05,10,38,24.00
2017,09,05,10,39,24.00
2017,09,05,10,40,24.00
2017,09,05,10,41,24.10
2017,09,05,10,42,24.10
2017,09,05,10,43,24.10
2017,09,05,10,44,24.10
2017,09,05,10,45,24.20
2017,09,05,10,46,24.20
2017,09,05,10,47,24.20
2017,09,05,10,48,24.20
2017,09,05,10,49,24.30
2017,09,05,10,50,24.30
2017,09,05,10,51,24.40
2017,09,05,10,52,24.40
2017,09,05,10,53,24.40
2017,09,05,10,54,24.50
2017,09,05,10,55,24.50
2017,09,05,10,56,24.60
2017,09,05,10,57,24.70
2017,09,05,10,58,24.70
2017,09,05,10,59,24.80
2017,09,05,11,00,24.80
2017,09,05,11,01,24.90
2017,09,05,11,02,24.90
2017,09,05,11,03,25.00
2017,09,05,11,04,25.10
2017,09,05,11,05,25.10
2017,09,05,11,06,25.20
2017,09,05,11,07,25.30
2017,09,05,11,08,25.30
2017,09,05,11,09,25.30
2017,09,05,11,10,25.30
2017,09,05,11,11,25.30
2017,09,05,11,12,25.30
2017,09,05,11,13,25.40
2017,09,05,11,14,25.40
2017,09,05,11,15,25.40
2017,09,05,11,16,25.40
2017,09,05,11,17,25.40
2017,09,05,11,18,25.40
2017,09,05,11,19,25.40
2017,09,05,11,20,25.40
2017,09,05,11,21,25.40
2017,09,05,11,22,25.40
2017,09,05,11,23,25.50
2017,09,05,11,24,25.50
2017,09,05,11,25,25.50
2017,09,05,11,26,25.50
2017,09,05,11,27,25.60
2017,09,05,11,28,25.60
2017,09,05,11,29,25.60
2017,09,05,11,30,25.60
2017,09,05,11,31,25.60
2017,09,05,11,32,25.60
2017,09,05,11,33,25.60
2017,09,05,11,34,25.60
2017,09,05,11,35,25.60
2017,09,05,11,36,25.60
2017,09,05,11,37,25.60
2017,09,05,11,38,25.60
2017,09,05,11,39,25.60
2017,09,05,11,40,25.60
2017,09,05,11,41,25.60
2017,09,05,11,42,25.60
2017,09,05,11,43,25.60
2017,09,05,11,44,25.70
2017,09,05,11,45,25.70
2017,09,05,11,46,25.70
2017,09,05,11,47,25.80
2017,09,05,11,48,25.90
2017,09,05,11,49,26.00
2017,09,05,11,50,26.10
2017,09,05,11,51,26.20
2017,09,05,11,52,26.30
2017,09,05,11,53,26.40
2017,09,05,11,54,26.50
2017,09,05,11,55,26.60
2017,09,05,11,56,26.70
2017,09,05,11,57,26.80
2017,09,05,11,58,26.90
2017,09,05,11,59,26.90
2017,09,05,12,00,27.00
2017,09,05,12,01,27.10
2017,09,05,12,02,27.10
2017,09,05,12,03,27.10
2017,09,05,12,04,27.10
2017,09,05,12,05,27.10
2017,09,05,12,06,27.10
2017,09,05,12,07,27.10
2017,09,05,12,08,27.10
2017,09,05,12,09,27.10
2017,09,05,12,10,27.20
2017,09,05,12,11,27.20
2017,09,05,12,12,27.30
2017,09,05,12,13,27.30
2017,09,05,12,14,27.40
2017,09,05,12,15,27.40
2017,09,05,12,16,27.40
2017,09,05,12,17,27.40
2017,09,05,12,18,27.40
2017,09,05,12,19,27.40
2017,09,05,12,20,27.40
2017,09,05,12,21,27.50
2017,09,05,12,22,27.50
2017,09,05,12,23,27.60
2017,09,05,12,24,27.60
2017,09,05,12,25,27.60
2017,09,05,12,26,27.60
2017,09,05,12,27,27.60
2017,09,05,12,28,27.70
2017,09,05,12,29,27.70
2017,09,05,12,30,27.70
2017,09,05,12,31,27.70
2017,09,05,12,32,27.70
2017,09,05,12,33,27.80
2017,09,05,12,34,27.80
2017,09,05,12,35,27.80
2017,09,05,12,36,27.90
2017,09,05,12,37,27.90
2017,09,05,12,38,28.00
2017,09,05,12,39,28.10
2017,09,05,12,40,28.10
2017,09,05,12,41,28.20
2017,09,05,12,42,28.30
2017,09,05,12,43,28.40
2017,09,05,12,44,28.50
2017,09,05,12,45,28.60
2017,09,05,12,46,28.70
2017,09,05,12,47,28.70
2017,09,05,12,48,28.80
2017,09,05,12,49,28.90
2017,09,05,12,50,29.00
2017,09,05,12,51,29.10
2017,09,05,12,52,29.20
2017,09,05,12,53,29.30
2017,09,05,12,54,29.30
2017,09,05,12,55,29.30
2017,09,05,12,56,29.40
2017,09,05,12,57,29.50
2017,09,05,12,58,29.50
2017,09,05,12,59,29.70
2017,09,05,13,00,29.70
2017,09,05,13,01,29.70
2017,09,05,13,02,29.70
2017,09,05,13,03,29.70
2017,09,05,13,04,29.70
2017,09,05,13,05,29.70
2017,09,05,13,06,29.60
2017,09,05,13,07,29.60
2017,09,05,13,08,29.60
2017,09,05,13,09,29.60
2017,09,05,13,10,29.60
2017,09,05,13,11,29.60
2017,09,05,13,12,29.60
2017,09,05,13,13,29.60
2017,09,05,13,14,29.60
2017,09,05,13,15,29.60
2017,09,05,13,16,29.60
2017,09,05,13,17,29.60
2017,09,05,13,18,29.60
2017,09,05,13,19,29.60
2017,09,05,13,20,29.60
2017,09,05,13,21,29.60
2017,09,05,13,22,29.60
2017,09,05,13,23,29.70
2017,09,05,13,24,29.70
2017,09,05,13,25,29.70
2017,09,05,13,26,29.70
2017,09,05,13,27,29.80
2017,09,05,13,28,29.90
2017,09,05,13,29,29.90
2017,09,05,13,30,29.90
2017,09,05,13,31,29.90
2017,09,05,13,32,30.00
2017,09,05,13,33,30.00
2017,09,05,13,34,30.00
2017,09,05,13,35,30.00
2017,09,05,13,36,29.90
2017,09,05,13,37,29.90
2017,09,05,13,38,29.90
2017,09,05,13,39,29.80
2017,09,05,13,40,29.80
2017,09,05,13,41,29.80
2017,09,05,13,42,29.70
2017,09,05,13,43,29.70
2017,09,05,13,44,29.70
2017,09,05,13,45,29.70
2017,09,05,13,46,29.70
2017,09,05,13,47,29.70
2017,09,05,13,48,29.70
2017,09,05,13,49,29.80
2017,09,05,13,50,29.90
2017,09,05,13,51,29.90
2017,09,05,13,52,29.90
2017,09,05,13,53,29.90
2017,09,05,13,54,29.90
2017,09,05,13,55,29.90
2017,09,05,13,56,29.90
2017,09,05,13,57,29.90
2017,09,05,13,58,29.90
2017,09,05,13,59,29.90
2017,09,05,14,00,30.00
2017,09,05,14,01,30.00
2017,09,05,14,02,30.00
2017,09,05,14,03,30.00
2017,09,05,14,04,30.10
2017,09,05,14,05,30.20
2017,09,05,14,06,30.20
2017,09,05,14,07,30.20
2017,09,05,14,08,30.20
2017,09,05,14,09,30.20
2017,09,05,14,10,30.10
2017,09,05,14,11,30.10
2017,09,05,14,12,30.10
2017,09,05,14,13,30.10
2017,09,05,14,14,30.20
2017,09,05,14,15,30.20
2017,09,05,14,16,30.20
2017,09,05,14,17,30.30
2017,09,05,14,18,30.30
2017,09,05,14,19,30.40
2017,09,05,14,20,30.40
2017,09,05,14,21,30.50
2017,09,05,14,22,30.50
2017,09,05,14,23,30.60
2017,09,05,14,24,30.70
2017,09,05,14,25,30.80
2017,09,05,14,26,30.80
2017,09,05,14,27,30.90
2017,09,05,14,28,30.90
2017,09,05,14,29,31.00
2017,09,05,14,30,31.00
2017,09,05,14,31,31.10
2017,09,05,14,32,31.10
2017,09,05,14,33,31.10
2017,09,05,14,34,31.10
2017,09,05,14,35,31.10
2017,09,05,14,36,31.10
2017,09,05,14,37,31.10
2017,09,05,14,38,31.10
2017,09,05,14,39,31.10
2017,09,05,14,40,31.10
2017,09,05,14,41,31.10
2017,09,05,14,42,31.20
2017,09,05,14,43,31.20
2017,09,05,14,44,31.20
2017,09,05,14,45,31.20
2017,09,05,14,46,31.30
2017,09,05,14,47,31.30
2017,09,05,14,48,31.30
2017,09,05,14,49,31.30
2017,09,05,14,50,31.30
2017,09,05,14,51,31.30
2017,09,05,14,52,31.30
2017,09,05,14,53,31.30
2017,09,05,14,54,31.30
2017,09,05,14,55,31.40
2017,09,05,14,56,31.40
2017,09,05,14,57,31.50
2017,09,05,14,58,31.60
2017,09,05,14,59,31.60
2017,09,05,15,00,31.60
2017,09,05,15,01,31.60
2017,09,05,15,02,31.70
2017,09,05,15,03,31.70
2017,09,05,15,04,31.60
2017,09,05,15,05,31.60
2017,09,05,15,06,31.60
2017,09,05,15,07,31.50
2017,09,05,15,08,31.40
2017,09,05,15,09,31.40
2017,09,05,15,10,31.40
2017,09,05,15,11,31.30
2017,09,05,15,12,31.30
2017,09,05,15,13,31.30
2017,09,05,15,14,31.30
2017,09,05,15,15,31.30
2017,09,05,15,16,31.30
2017,09,05,15,17,31.30
2017,09,05,15,18,31.20
2017,09,05,15,19,31.20
2017,09,05,15,20,31.20
2017,09,05,15,21,31.20
2017,09,05,15,22,31.20
2017,09,05,15,23,31.20
2017,09,05,15,24,31.20
2017,09,05,15,25,31.20
2017,09,05,15,26,31.30
2017,09,05,15,27,31.40
2017,09,05,15,28,31.50
2017,09,05,15,29,31.50
2017,09,05,15,30,31.60
2017,09,05,15,31,31.60
2017,09,05,15,32,31.70
2017,09,05,15,33,31.70
2017,09,05,15,34,31.70
2017,09,05,15,35,31.70
2017,09,05,15,36,31.70
2017,09,05,15,37,31.80
2017,09,05,15,38,31.80
2017,09,05,15,39,31.80
2017,09,05,15,40,31.90
2017,09,05,15,41,31.90
2017,09,05,15,42,31.90
2017,09,05,15,43,31.90
2017,09,05,15,44,31.80
2017,09,05,15,45,31.80
2017,09,05,15,46,31.80
2017,09,05,15,47,31.80
2017,09,05,15,48,31.80
2017,09,05,15,49,31.70
2017,09,05,15,50,31.70
2017,09,05,15,51,31.70
2017,09,05,15,52,31.60
2017,09,05,15,53,31.60
2017,09,05,15,54,31.50
2017,09,05,15,55,31.50
2017,09,05,15,56,31.50
2017,09,05,15,57,31.50
2017,09,05,15,58,31.50
2017,09,05,15,59,31.50
2017,09,05,16,00,31.50
2017,09,05,16,01,31.50
2017,09,05,16,02,31.50
2017,09,05,16,03,31.50
2017,09,05,16,04,31.40
2017,09,05,16,05,31.40
2017,09,05,16,06,31.40
2017,09,05,16,07,31.30
2017,09,05,16,08,31.30
2017,09,05,16,09,31.20
2017,09,05,16,10,31.20
2017,09,05,16,11,31.20
2017,09,05,16,12,31.20
2017,09,05,16,13,31.30
2017,09,05,16,14,31.30
2017,09,05,16,15,31.30
2017,09,05,16,16,31.30
2017,09,05,16,17,31.20
2017,09,05,16,18,31.20
2017,09,05,16,19,31.20
2017,09,05,16,20,31.20
2017,09,05,16,21,31.20
2017,09,05,16,22,31.30
2017,09,05,16,23,31.30
2017,09,05,16,24,31.30
2017,09,05,16,25,31.30
2017,09,05,16,26,31.20
2017,09,05,16,27,31.30
2017,09,05,16,28,31.30
2017,09,05,16,29,31.30
2017,09,05,16,30,31.30
2017,09,05,16,31,31.30
2017,09,05,16,32,31.40
2017,09,05,16,33,31.40
2017,09,05,16,34,31.40
2017,09,05,16,35,31.40
2017,09,05,16,36,31.30
2017,09,05,16,37,31.40
2017,09,05,16,38,31.40
2017,09,05,16,39,31.40
2017,09,05,16,40,31.50
2017,09,05,16,41,31.40
2017,09,05,16,42,31.40
2017,09,05,16,43,31.40
2017,09,05,16,44,31.40
2017,09,05,16,45,31.40
2017,09,05,16,46,31.40
2017,09,05,16,47,31.30
2017,09,05,16,48,31.20
2017,09,05,16,49,31.10
2017,09,05,16,50,31.00
2017,09,05,16,51,31.00
2017,09,05,16,52,31.00
2017,09,05,16,53,31.00
2017,09,05,16,54,31.00
2017,09,05,16,55,31.00
2017,09,05,16,56,31.00
2017,09,05,16,57,31.10
2017,09,05,16,58,31.10
2017,09,05,16,59,31.00
2017,09,05,17,00,31.00
2017,09,05,17,01,31.00
2017,09,05,17,02,31.00
2017,09,05,17,03,31.00
2017,09,05,17,04,30.90
2017,09,05,17,05,30.90
2017,09,05,17,06,30.90
2017,09,05,17,07,30.90
2017,09,05,17,08,31.00
2017,09,05,17,09,31.00
2017,09,05,17,10,31.00
2017,09,05,17,11,31.00
2017,09,05,17,12,31.00
2017,09,05,17,13,31.00
2017,09,05,17,14,31.00
2017,09,05,17,15,31.00
2017,09,05,17,16,30.90
2017,09,05,17,17,30.90
2017,09,05,17,18,30.90
2017,09,05,17,19,31.00